TimePST,TemperatureF,Dew PointF,Humidity,Sea Level PressureIn,VisibilityMPH,Wind Direction,Wind SpeedMPH,Gust SpeedMPH,PrecipitationIn,Events,Conditions,WindDirDegrees,DateUTC
12:15 AM,42.8,42.8,100,29.94,10.0,SE,6.9,-,N/A,,Unknown,140,2012-11-08 08:15:00
12:35 AM,44.6,44.6,100,29.94,10.0,SE,9.2,-,N/A,,Unknown,130,2012-11-08 08:35:00
12:55 AM,44.6,44.6,100,29.92,10.0,SE,5.8,-,N/A,,Unknown,130,2012-11-08 08:55:00
1:15 AM,42.8,42.8,100,29.91,10.0,SE,5.8,-,N/A,,Unknown,130,2012-11-08 09:15:00
1:35 AM,42.8,42.8,100,29.90,10.0,SSE,6.9,-,N/A,,Clear,150,2012-11-08 09:35:00
1:55 AM,42.8,42.8,100,29.90,10.0,SSE,8.1,-,N/A,,Unknown,160,2012-11-08 09:55:00
2:15 AM,44.6,44.6,100,29.88,10.0,SSE,6.9,-,N/A,,Unknown,150,2012-11-08 10:15:00
2:35 AM,44.6,44.6,100,29.87,10.0,SSE,8.1,-,N/A,,Overcast,150,2012-11-08 10:35:00
2:55 AM,44.6,44.6,100,29.87,10.0,SSE,9.2,-,N/A,,Overcast,150,2012-11-08 10:55:00
3:15 AM,44.6,44.6,100,29.87,10.0,WSW,8.1,-,0.01,,Overcast,240,2012-11-08 11:15:00
3:35 AM,44.6,44.6,100,29.86,7.0,East,4.6,-,0.08,,Overcast,100,2012-11-08 11:35:00
3:55 AM,44.6,42.8,93,29.85,10.0,ESE,4.6,-,0.09,,Mostly Cloudy,120,2012-11-08 11:55:00
4:15 AM,44.6,42.8,93,29.84,10.0,SE,6.9,-,N/A,,Overcast,140,2012-11-08 12:15:00
4:35 AM,44.6,44.6,100,29.83,10.0,SE,8.1,-,N/A,,Overcast,140,2012-11-08 12:35:00
4:55 AM,44.6,44.6,100,29.82,10.0,SE,6.9,-,N/A,,Overcast,140,2012-11-08 12:55:00
5:15 AM,44.6,44.6,100,29.82,10.0,SSE,5.8,-,0.01,,Overcast,150,2012-11-08 13:15:00
5:35 AM,44.6,44.6,100,29.82,10.0,SSE,6.9,-,0.04,,Overcast,150,2012-11-08 13:35:00
5:55 AM,44.6,44.6,100,29.83,10.0,SSE,5.8,-,0.06,,Overcast,160,2012-11-08 13:55:00
6:15 AM,44.6,44.6,100,29.81,9.0,SE,10.4,-,0.09,,Overcast,140,2012-11-08 14:15:00
6:35 AM,44.6,44.6,100,29.81,10.0,SSE,10.4,-,0.11,,Overcast,150,2012-11-08 14:35:00
6:55 AM,44.6,44.6,100,29.80,10.0,SSE,9.2,-,0.12,,Overcast,150,2012-11-08 14:55:00
7:15 AM,44.6,44.6,100,29.81,10.0,SSE,6.9,-,N/A,,Overcast,150,2012-11-08 15:15:00
7:35 AM,44.6,42.8,93,29.81,10.0,SSE,6.9,-,0.02,,Overcast,160,2012-11-08 15:35:00
7:55 AM,44.6,42.8,93,29.80,9.0,SE,9.2,-,0.04,,Overcast,140,2012-11-08 15:55:00
8:15 AM,44.6,42.8,93,29.80,10.0,SSE,10.4,-,N/A,,Mostly Cloudy,150,2012-11-08 16:15:00
8:35 AM,44.6,44.6,100,29.80,10.0,SSE,11.5,-,N/A,,Mostly Cloudy,150,2012-11-08 16:35:00
8:55 AM,44.6,42.8,93,29.80,10.0,SSE,10.4,-,N/A,,Overcast,150,2012-11-08 16:55:00
9:15 AM,44.6,42.8,93,29.80,10.0,SSE,10.4,-,N/A,,Overcast,160,2012-11-08 17:15:00
9:35 AM,44.6,42.8,93,29.80,10.0,SSE,9.2,-,N/A,,Overcast,150,2012-11-08 17:35:00
9:55 AM,44.6,44.6,100,29.80,10.0,SSE,8.1,-,N/A,,Overcast,160,2012-11-08 17:55:00
10:15 AM,44.6,42.8,93,29.81,10.0,South,6.9,-,N/A,,Overcast,170,2012-11-08 18:15:00
10:35 AM,44.6,44.6,100,29.81,8.0,South,5.8,-,0.01,,Overcast,170,2012-11-08 18:35:00
10:55 AM,44.6,44.6,100,29.81,10.0,South,8.1,-,0.06,,Overcast,180,2012-11-08 18:55:00
11:15 AM,44.6,44.6,100,29.81,10.0,South,5.8,-,0.03,,Overcast,170,2012-11-08 19:15:00
11:35 AM,44.6,44.6,100,29.81,10.0,South,5.8,-,0.06,,Overcast,170,2012-11-08 19:35:00
11:55 AM,44.6,44.6,100,29.80,10.0,SSE,5.8,-,0.06,,Overcast,160,2012-11-08 19:55:00
12:15 PM,44.6,44.6,100,29.81,10.0,SSE,5.8,-,N/A,,Mostly Cloudy,160,2012-11-08 20:15:00
12:35 PM,46.4,44.6,93,29.80,10.0,SSE,6.9,-,N/A,,Overcast,150,2012-11-08 20:35:00
12:55 PM,46.4,44.6,93,29.80,10.0,SE,6.9,-,N/A,,Scattered Clouds,130,2012-11-08 20:55:00
1:15 PM,46.4,44.6,93,29.80,10.0,SE,8.1,-,N/A,,Scattered Clouds,130,2012-11-08 21:15:00
1:35 PM,46.4,44.6,93,29.80,10.0,SE,6.9,-,N/A,,Mostly Cloudy,140,2012-11-08 21:35:00
1:55 PM,46.4,44.6,93,29.80,10.0,South,6.9,-,N/A,,Mostly Cloudy,170,2012-11-08 21:55:00
2:15 PM,48.2,44.6,87,29.80,10.0,South,8.1,-,N/A,,Overcast,170,2012-11-08 22:15:00
2:35 PM,48.2,44.6,87,29.80,10.0,SSE,5.8,-,N/A,,Overcast,160,2012-11-08 22:35:00
2:55 PM,46.4,44.6,93,29.80,10.0,SE,6.9,-,N/A,,Mostly Cloudy,140,2012-11-08 22:55:00
3:15 PM,48.2,44.6,87,29.80,10.0,SE,5.8,-,N/A,,Overcast,130,2012-11-08 23:15:00
3:35 PM,48.2,44.6,87,29.81,10.0,SSW,3.5,-,N/A,,Overcast,200,2012-11-08 23:35:00
3:55 PM,46.4,44.6,93,29.81,10.0,SSW,4.6,-,N/A,,Overcast,210,2012-11-08 23:55:00
4:15 PM,46.4,42.8,87,29.82,10.0,NNE,5.8,-,N/A,,Overcast,30,2012-11-09 00:15:00
4:35 PM,46.4,42.8,87,29.82,10.0,East,3.5,-,N/A,,Overcast,90,2012-11-09 00:35:00
4:55 PM,46.4,44.6,93,29.82,10.0,SE,4.6,-,N/A,,Overcast,140,2012-11-09 00:55:00
5:15 PM,46.4,44.6,93,29.82,10.0,SSE,3.5,-,N/A,,Overcast,150,2012-11-09 01:15:00
5:35 PM,44.6,44.6,100,29.82,10.0,SE,4.6,-,N/A,,Overcast,140,2012-11-09 01:35:00
5:55 PM,44.6,44.6,100,29.82,10.0,SE,5.8,-,N/A,,Overcast,140,2012-11-09 01:55:00
6:15 PM,44.6,42.8,93,29.83,10.0,SE,5.8,-,N/A,,Overcast,140,2012-11-09 02:15:00
6:35 PM,44.6,44.6,100,29.83,10.0,SSE,6.9,-,N/A,,Overcast,150,2012-11-09 02:35:00
6:55 PM,44.6,42.8,93,29.83,10.0,SSE,6.9,-,N/A,,Overcast,150,2012-11-09 02:55:00
7:15 PM,44.6,44.6,100,29.84,10.0,SSE,5.8,-,N/A,,Overcast,160,2012-11-09 03:15:00
7:35 PM,44.6,42.8,93,29.84,10.0,SSE,9.2,-,N/A,,Overcast,150,2012-11-09 03:35:00
7:55 PM,42.8,41.0,93,29.84,10.0,South,6.9,-,N/A,,Mostly Cloudy,170,2012-11-09 03:55:00
8:15 PM,42.8,41.0,93,29.85,10.0,SSE,6.9,-,N/A,,Overcast,150,2012-11-09 04:15:00
8:35 PM,44.6,42.8,93,29.85,10.0,SSE,6.9,-,N/A,,Overcast,150,2012-11-09 04:35:00
8:55 PM,42.8,42.8,100,29.85,10.0,SSE,8.1,-,N/A,,Overcast,150,2012-11-09 04:55:00
9:15 PM,42.8,42.8,100,29.86,10.0,SSE,6.9,-,N/A,,Overcast,160,2012-11-09 05:15:00
9:35 PM,44.6,42.8,93,29.87,10.0,SSE,4.6,-,N/A,,Overcast,160,2012-11-09 05:35:00
9:55 PM,44.6,42.8,93,29.87,10.0,SSE,8.1,-,N/A,,Overcast,150,2012-11-09 05:55:00
10:15 PM,44.6,42.8,93,29.87,10.0,SSE,5.8,-,N/A,,Overcast,150,2012-11-09 06:15:00
10:35 PM,44.6,42.8,93,29.87,10.0,SSE,6.9,-,N/A,,Overcast,160,2012-11-09 06:35:00
10:55 PM,42.8,41.0,93,29.87,10.0,SSE,8.1,-,N/A,,Overcast,160,2012-11-09 06:55:00
11:15 PM,42.8,42.8,100,29.87,10.0,SSE,6.9,-,N/A,,Overcast,160,2012-11-09 07:15:00
11:35 PM,44.6,42.8,93,29.88,10.0,SE,8.1,-,N/A,,Overcast,140,2012-11-09 07:35:00
11:55 PM,42.8,41.0,93,29.88,10.0,SSE,5.8,-,N/A,,Overcast,160,2012-11-09 07:55:00